ON7SD-5 Weather Reports


time (UTC)temp
F
wind
direction
speed
knots
gust
knots
rain 1hr
in
rain 24hr
in
rain mn
in
humidity
%
barometer
mb
20260506185204 55 4 0.9 7.0 0.00 0.00 0.00 73 1010.5
20260506184704 55 1 0.9 1.7 0.00 0.00 0.00 72 1010.3
20260506184204 55 1 0.9 6.1 0.00 0.00 0.00 71 1010.4
20260506183704 56 1 0.9 4.3 0.00 0.00 0.00 71 1010.3
20260506183204 56 1 0.9 4.3 0.00 0.00 0.00 71 1010.2
20260506182704 57 2 0.9 5.2 0.00 0.00 0.00 70 1010.2
20260506182204 57 1 0.9 2.6 0.00 0.00 0.00 69 1010.2
20260506181704 56 1 1.7 6.1 0.00 0.00 0.00 68 1010.1
20260506181204 57 1 1.7 7.8 0.00 0.00 0.00 68 1010.0
20260506180704 57 14 0.9 6.1 0.00 0.00 0.00 68 1009.9
20260506180204 57 13 1.7 5.2 0.00 0.00 0.00 70 1009.8
20260506175704 56 13 1.7 6.1 0.00 0.00 0.00 70 1009.8
20260506175204 57 13 1.7 5.2 0.00 0.00 0.00 68 1009.8
20260506174704 57 11 2.6 5.2 0.00 0.00 0.00 69 1009.8
20260506174204 57 8 2.6 7.8 0.00 0.00 0.00 68 1009.6
20260506173704 58 8 1.7 7.8 0.00 0.00 0.00 68 1009.6
20260506173204 58 6 1.7 6.1 0.00 0.00 0.00 67 1009.5
20260506172704 58 7 2.6 10.4 0.00 0.00 0.00 67 1009.4
20260506172204 58 73 2.6 8.7 0.00 0.00 0.00 66 1009.4
20260506171704 58 21 3.5 8.7 0.00 0.00 0.00 65 1009.4
20260506171204 59 20 2.6 8.7 0.00 0.00 0.00 65 1009.3
20260506170704 59 3 2.6 8.7 0.00 0.00 0.00 63 1009.3
20260506170204 59 8 3.5 10.4 0.00 0.00 0.00 62 1009.2
20260506165704 59 5 3.5 8.7 0.00 0.00 0.00 59 1009.2
20260506165204 59 13 3.5 8.7 0.00 0.00 0.00 62 1009.1
20260506164704 59 10 2.6 7.8 0.00 0.00 0.00 60 1009.1
20260506164204 60 14 1.7 5.2 0.00 0.00 0.00 62 1009.1
20260506163704 59 15 2.6 7.8 0.00 0.00 0.00 64 1009.1
20260506163204 60 22 2.6 7.8 0.00 0.00 0.00 64 1009.1
20260506162704 60 7 1.7 7.0 0.00 0.00 0.00 64 1009.1
20260506162204 61 15 0.0 6.1 0.00 0.00 0.00 64 1009.0
20260506161704 60 15 1.7 4.3 0.00 0.00 0.00 62 1009.0
20260506161204 60 0 2.6 7.8 0.00 0.00 0.00 61 1009.0
20260506160704 61 17 2.6 6.1 0.00 0.00 0.00 61 1009.0
20260506160204 61 5 2.6 7.0 0.00 0.00 0.00 62 1009.0
20260506155704 61 13 3.5 10.4 0.00 0.00 0.00 61 1009.0
20260506155204 61 7 2.6 9.6 0.00 0.00 0.00 62 1009.0
20260506154704 62 29 2.6 6.1 0.00 0.00 0.00 62 1008.9
20260506154204 61 2 4.3 9.6 0.00 0.00 0.00 62 1008.9
20260506153704 61 8 2.6 8.7 0.00 0.00 0.00 63 1008.9
20260506153204 62 16 1.7 7.0 0.00 0.00 0.00 62 1009.0
20260506152704 61 24 1.7 6.1 0.00 0.00 0.00 63 1009.0
20260506152204 61 15 1.7 8.7 0.00 0.00 0.00 64 1008.9
20260506151704 60 7 1.7 7.8 0.00 0.00 0.00 65 1009.0
20260506151204 60 23 1.7 8.7 0.00 0.00 0.00 65 1008.9
20260506150704 60 30 2.6 6.1 0.00 0.00 0.00 64 1008.9
20260506150204 60 4 2.6 7.8 0.00 0.00 0.00 64 1009.0
20260506145704 60 8 1.7 7.0 0.00 0.00 0.00 64 1008.9
20260506145204 60 13 0.9 4.3 0.00 0.00 0.00 64 1008.9
20260506144704 60 23 1.7 7.8 0.00 0.00 0.00 64 1008.9
20260506144204 60 1 0.9 5.2 0.00 0.00 0.00 64 1008.9
20260506143704 60 7 1.7 5.2 0.00 0.00 0.00 64 1008.9
20260506143204 60 1 1.7 7.0 0.00 0.00 0.00 65 1008.9
20260506142704 59 12 2.6 5.2 0.00 0.00 0.00 66 1008.9
20260506142204 59 11 2.6 7.8 0.00 0.00 0.00 65 1008.9
20260506141704 59 11 1.7 4.3 0.00 0.00 0.00 66 1008.9
20260506141204 59 12 2.6 7.8 0.00 0.00 0.00 67 1009.0
20260506140704 59 9 2.6 7.8 0.00 0.00 0.00 67 1008.9
20260506140204 59 1 2.6 7.8 0.00 0.00 0.00 66 1008.9
20260506135704 59 4 1.7 7.0 0.00 0.00 0.00 67 1008.9
20260506135204 59 3 0.9 6.1 0.00 0.00 0.00 67 1008.9
20260506134704 59 1 0.9 4.3 0.00 0.00 0.00 69 1009.0
20260506134204 59 1 0.9 5.2 0.00 0.00 0.00 68 1009.0
20260506133704 59 7 1.7 7.0 0.00 0.00 0.00 68 1009.0
20260506133204 59 351 1.7 7.8 0.00 0.00 0.00 68 1009.1
20260506132704 59 340 1.7 5.2 0.00 0.00 0.00 70 1009.1
20260506132204 58 328 1.7 8.7 0.00 0.00 0.00 71 1009.0
20260506131704 58 11 1.7 5.2 0.00 0.00 0.00 70 1009.0
20260506131204 58 11 1.7 7.8 0.00 0.00 0.00 71 1009.0
20260506130704 58 11 1.7 5.2 0.00 0.00 0.00 70 1009.0
20260506130204 58 11 1.7 5.2 0.00 0.00 0.00 71 1008.9
20260506125704 58 11 1.7 6.1 0.00 0.00 0.00 71 1008.9
20260506125204 59 12 1.7 5.2 0.00 0.00 0.00 70 1008.8
20260506124704 58 15 2.6 6.1 0.00 0.00 0.00 71 1008.8
20260506124204 58 12 2.6 7.8 0.00 0.00 0.00 69 1008.8
20260506123704 58 11 0.9 6.1 0.00 0.00 0.00 69 1008.8
20260506123204 58 11 0.9 5.2 0.00 0.00 0.00 71 1008.8
20260506122704 58 11 1.7 6.1 0.00 0.00 0.00 72 1008.8
20260506122204 58 11 1.7 5.2 0.00 0.00 0.00 72 1008.8
20260506121704 58 13 0.9 7.8 0.00 0.00 0.00 71 1008.8
20260506121204 58 6 0.9 5.2 0.00 0.00 0.00 72 1008.9
20260506120704 58 6 0.9 5.2 0.00 0.00 0.00 73 1008.8
20260506120204 57 4 1.7 4.3 0.00 0.00 0.00 73 1008.8
20260506115704 57 4 2.6 6.1 0.00 0.00 0.00 72 1008.8
20260506115204 57 5 1.7 7.8 0.00 0.00 0.00 71 1008.8
20260506114704 58 5 0.9 5.2 0.00 0.00 0.00 71 1008.8
20260506114204 59 5 0.9 7.8 0.00 0.00 0.00 70 1008.8
20260506113704 59 10 0.9 5.2 0.00 0.00 0.00 70 1008.8
20260506113204 58 10 0.9 3.5 0.00 0.00 0.00 72 1008.8
20260506112704 58 10 1.7 5.2 0.00 0.00 0.00 73 1008.8
20260506112204 57 10 1.7 4.3 0.00 0.00 0.00 75 1008.8
20260506111704 57 10 0.9 6.1 0.00 0.00 0.00 75 1008.8
20260506111204 56 10 0.9 5.2 0.00 0.00 0.00 77 1008.9
20260506110704 56 9 1.7 5.2 0.00 0.00 0.00 77 1008.9
20260506110204 55 10 2.6 6.1 0.00 0.00 0.00 78 1008.9
20260506105704 55 12 1.7 7.0 0.00 0.00 0.00 78 1008.9
20260506105204 55 13 1.7 7.0 0.00 0.00 0.00 79 1008.9
20260506104704 55 13 1.7 5.2 0.00 0.00 0.00 79 1008.9
20260506104204 55 14 1.7 5.2 0.00 0.00 0.00 80 1008.9
20260506103704 54 13 1.7 7.0 0.00 0.00 0.00 80 1008.9
20260506103204 54 15 1.7 6.1 0.00 0.00 0.00 81 1008.9
20260506102704 53 21 1.7 7.8 0.00 0.00 0.00 82 1008.9
20260506102204 53 34 1.7 5.2 0.00 0.00 0.00 82 1009.0
20260506101704 53 34 0.9 6.1 0.00 0.00 0.00 82 1009.0
20260506101204 52 34 0.9 6.1 0.00 0.00 0.00 84 1009.0
20260506100704 52 37 1.7 5.2 0.00 0.00 0.00 84 1009.0
20260506100207 52 37 1.7 6.1 0.00 0.00 0.00 83 1009.0
20260506095707 52 38 1.7 7.8 0.00 0.00 0.00 82 1009.0
20260506095205 52 26 1.7 7.8 0.00 0.00 0.00 82 1009.0
20260506094705 52 31 2.6 4.3 0.00 0.00 0.00 82 1008.9
20260506094205 52 31 2.6 6.1 0.00 0.00 0.00 81 1008.9
20260506093705 52 25 3.5 6.1 0.00 0.00 0.00 81 1008.8
20260506093205 52 20 2.6 7.0 0.00 0.00 0.00 81 1008.9
20260506092705 52 23 1.7 6.1 0.00 0.00 0.00 81 1008.9
20260506092205 52 23 1.7 7.8 0.00 0.00 0.00 81 1008.8
20260506091705 52 35 2.6 7.0 0.00 0.00 0.00 81 1008.8
20260506091205 52 15 1.7 7.0 0.00 0.00 0.00 81 1008.7
20260506090705 52 64 1.7 5.2 0.00 0.00 0.00 82 1008.7
20260506090205 53 68 1.7 6.1 0.00 0.00 0.00 82 1008.6
20260506085705 53 71 0.9 7.8 0.00 0.00 0.00 83 1008.6
20260506085205 53 68 0.9 4.3 0.00 0.00 0.00 83 1008.5
20260506084705 53 68 1.7 5.2 0.00 0.00 0.00 83 1008.5
20260506084205 53 66 0.9 3.5 0.00 0.00 0.00 84 1008.4
20260506083705 52 65 0.9 4.3 0.00 0.00 0.00 83 1008.4
20260506083205 52 65 1.7 7.8 0.00 0.00 0.00 84 1008.4
20260506082705 52 27 2.6 7.0 0.00 0.00 0.00 84 1008.3
20260506082205 52 22 1.7 7.0 0.00 0.00 0.00 84 1008.2
20260506081705 52 29 2.6 8.7 0.00 0.00 0.00 83 1008.3
20260506081205 52 18 2.6 7.0 0.00 0.00 0.00 81 1008.3
20260506080705 53 19 2.6 6.1 0.00 0.00 0.00 80 1008.2
20260506080205 53 18 2.6 7.0 0.00 0.00 0.00 80 1008.1
20260506073205 53 10 2.6 8.7 0.00 0.00 0.00 80 1008.0
20260506072705 53 8 2.6 7.0 0.00 0.00 0.00 79 1008.0
20260506072205 53 8 1.7 5.2 0.00 0.00 0.00 80 1007.9
20260506071705 53 9 1.7 8.7 0.00 0.00 0.00 80 1007.9
20260506071205 53 11 2.6 6.1 0.00 0.00 0.00 80 1007.9
20260506070705 53 11 2.6 7.8 0.00 0.00 0.00 80 1007.9
20260506070205 53 18 1.7 6.1 0.00 0.00 0.00 80 1007.9
20260506062205 51 23 0.9 6.1 0.00 0.00 0.00 84 1007.8
20260506061705 50 23 0.9 5.2 0.00 0.00 0.00 84 1007.8
20260506061205 50 23 0.9 3.5 0.00 0.00 0.00 84 1007.8
20260506060705 50 23 0.9 3.5 0.00 0.00 0.00 84 1007.8
20260506060205 50 23 0.9 6.1 0.00 0.00 0.00 84 1007.7
20260506051205 49 24 0.9 4.3 0.00 0.00 0.00 83 1007.7
20260506050705 49 24 0.9 5.2 0.00 0.00 0.00 83 1007.7
20260506050205 48 24 0.9 4.3 0.00 0.00 0.00 84 1007.7
20260506044705 48 24 0.9 5.2 0.00 0.00 0.00 84 1007.7
20260506044205 48 24 0.9 4.3 0.00 0.00 0.00 84 1007.7
20260506043705 48 24 0.9 3.5 0.00 0.00 0.00 84 1007.7
20260506043205 48 24 0.9 6.1 0.00 0.00 0.00 84 1007.7
20260506042705 48 25 0.9 1.7 0.00 0.00 0.00 84 1007.7
20260506042205 48 25 0.9 4.3 0.00 0.00 0.00 84 1007.7
20260506041705 48 25 0.9 3.5 0.00 0.00 0.00 84 1007.7
20260506041205 48 25 0.9 4.3 0.00 0.00 0.00 84 1007.6
20260506040705 48 24 0.9 0.0 0.00 0.00 0.00 84 1007.7
20260506040205 48 25 0.9 5.2 0.00 0.00 0.00 84 1007.7
20260506035705 48 25 0.9 5.2 0.00 0.00 0.00 84 1007.8
20260506035205 48 24 0.9 5.2 0.00 0.00 0.00 84 1007.8
20260506034705 48 25 0.9 3.5 0.00 0.00 0.00 84 1007.8
20260506034205 48 24 0.9 3.5 0.00 0.00 0.00 84 1007.8
20260506033705 48 25 0.9 3.5 0.00 0.00 0.00 83 1007.8
20260506033205 48 25 1.7 4.3 0.00 0.00 0.00 83 1007.9
20260506032705 48 25 1.7 5.2 0.00 0.00 0.00 83 1007.9
20260506032205 48 25 1.7 5.2 0.00 0.00 0.00 83 1007.8
20260506031705 48 25 1.7 4.3 0.00 0.00 0.00 83 1007.8
20260506031205 48 25 0.9 4.3 0.00 0.00 0.00 83 1007.8
20260506030705 48 25 0.9 4.3 0.00 0.00 0.00 83 1007.8
20260506030205 48 25 1.7 5.2 0.00 0.00 0.00 83 1007.9
20260506025705 48 25 1.7 4.3 0.00 0.00 0.00 83 1007.9
20260506025205 48 25 0.9 4.3 0.00 0.00 0.00 83 1007.9
20260506024705 49 25 0.9 5.2 0.00 0.00 0.00 83 1007.9
20260506024205 49 25 0.9 5.2 0.00 0.00 0.00 82 1007.9
20260506023705 49 25 1.7 5.2 0.00 0.00 0.00 82 1007.9
20260506023205 49 25 2.6 5.2 0.00 0.00 0.00 82 1007.9
20260506022705 49 25 1.7 6.1 0.00 0.00 0.00 82 1007.9
20260506022205 49 25 1.7 6.1 0.00 0.00 0.00 82 1007.9
20260506021705 49 25 0.9 4.3 0.00 0.00 0.00 82 1007.9
20260506021205 49 25 1.7 5.2 0.00 0.00 0.00 82 1008.0
20260506020705 49 25 1.7 6.1 0.00 0.00 0.00 82 1008.0
20260506020205 49 25 1.7 3.5 0.00 0.00 0.00 82 1008.0
20260506015705 49 25 1.7 4.3 0.00 0.00 0.00 82 1008.0
20260506015205 49 25 1.7 5.2 0.00 0.00 0.00 82 1008.0
20260506014705 49 25 0.9 3.5 0.00 0.00 0.00 83 1008.0
20260506014205 49 25 0.9 5.2 0.00 0.00 0.00 83 1008.0
20260506013705 49 26 0.9 4.3 0.00 0.00 0.00 83 1008.0
20260506013205 49 26 2.6 4.3 0.00 0.00 0.00 83 1008.0
20260506012705 49 26 2.6 7.0 0.00 0.00 0.00 83 1008.1
20260506012205 49 26 1.7 4.3 0.00 0.00 0.00 84 1008.1
20260506011705 49 26 0.9 5.2 0.00 0.00 0.00 84 1008.1
20260506011205 49 26 0.9 5.2 0.00 0.00 0.00 84 1008.0
20260506010705 50 26 1.7 7.0 0.00 0.00 0.00 84 1008.0
20260506010205 50 27 1.7 5.2 0.00 0.00 0.00 84 1008.1
20260506005705 50 27 0.9 6.1 0.00 0.00 0.00 84 1008.0
20260506005205 50 27 1.7 4.3 0.00 0.00 0.00 84 1008.1
20260506004705 50 27 1.7 6.1 0.00 0.00 0.00 84 1008.1
20260506004205 50 28 0.9 4.3 0.00 0.00 0.00 84 1008.1
20260506003705 50 28 0.9 3.5 0.00 0.00 0.00 84 1008.1
20260506003205 50 29 1.7 4.3 0.00 0.00 0.00 84 1008.2
20260506002705 50 30 1.7 6.1 0.00 0.00 0.00 84 1008.3
20260506002205 50 16 0.9 4.3 0.00 0.00 0.00 84 1008.3
20260506001705 50 16 0.9 5.2 0.00 0.00 0.00 84 1008.3
20260506001205 50 16 0.9 5.2 0.00 0.00 0.00 84 1008.3
20260506000705 51 16 1.7 5.2 0.00 0.00 0.00 84 1008.3
20260506000205 51 16 1.7 6.1 0.00 0.00 0.00 84 1008.4
20260505235705 51 18 0.9 7.0 0.00 0.00 0.00 84 1008.5
20260505235205 51 20 0.9 3.5 0.00 0.00 0.00 84 1008.4
20260505234705 51 20 1.7 5.2 0.00 0.00 0.00 84 1008.5
20260505234205 51 21 1.7 7.0 0.00 0.00 0.00 84 1008.4
20260505233705 51 21 0.9 6.1 0.00 0.00 0.00 84 1008.4
20260505233205 51 23 0.0 2.6 0.00 0.00 0.00 84 1008.4
20260505232705 51 23 0.9 2.6 0.00 0.00 0.00 84 1008.4
20260505232205 51 23 0.9 5.2 0.00 0.00 0.00 84 1008.4
20260505231705 51 23 0.9 4.3 0.00 0.00 0.00 84 1008.4
20260505231205 51 23 0.9 4.3 0.00 0.00 0.00 83 1008.4
20260505230706 51 23 0.9 3.5 0.00 0.00 0.00 83 1008.5
20260505230205 51 23 0.9 1.7 0.00 0.00 0.00 83 1008.5
20260505225705 52 23 1.7 6.1 0.00 0.00 0.00 83 1008.5
20260505225206 52 23 0.9 4.3 0.00 0.00 0.00 83 1008.5
20260505224706 52 23 0.9 5.2 0.00 0.00 0.00 83 1008.5
20260505224206 52 23 0.9 4.3 0.00 0.00 0.00 82 1008.5
20260505223706 52 23 0.9 4.3 0.00 0.00 0.00 82 1008.5
20260505223206 52 23 1.7 5.2 0.00 0.00 0.00 82 1008.6
20260505222706 52 23 0.9 4.3 0.00 0.00 0.00 82 1008.5
20260505222206 52 23 1.7 4.3 0.00 0.00 0.00 82 1008.6
20260505221706 52 23 1.7 5.2 0.00 0.00 0.00 81 1008.6
20260505221206 52 23 1.7 4.3 0.00 0.00 0.00 81 1008.6
20260505220706 52 23 1.7 5.2 0.00 0.00 0.00 81 1008.6
20260505220206 52 23 0.9 5.2 0.00 0.00 0.00 81 1008.7
20260505215706 52 23 0.9 4.3 0.00 0.00 0.00 81 1008.7
20260505215206 52 23 0.9 4.3 0.00 0.00 0.00 81 1008.7
20260505214706 52 23 0.9 5.2 0.00 0.00 0.00 80 1008.7
20260505214206 52 23 0.9 3.5 0.00 0.00 0.00 80 1008.7
20260505213706 52 23 0.9 3.5 0.00 0.00 0.00 80 1008.7
20260505213206 52 23 0.9 4.3 0.00 0.00 0.00 81 1008.7
20260505212706 52 23 1.7 5.2 0.00 0.00 0.00 81 1008.7
20260505212206 52 23 0.9 4.3 0.00 0.00 0.00 81 1008.7
20260505211706 52 23 1.7 4.3 0.00 0.00 0.00 80 1008.6
20260505211206 53 23 1.7 6.1 0.00 0.00 0.00 80 1008.7
20260505210706 53 23 1.7 7.8 0.00 0.00 0.00 80 1008.7
20260505210206 53 27 1.7 6.1 0.00 0.00 0.00 80 1008.7
20260505205706 53 26 1.7 5.2 0.00 0.00 0.00 80 1008.6
20260505205206 53 25 1.7 6.1 0.00 0.00 0.00 79 1008.6
20260505204706 53 17 1.7 6.1 0.00 0.00 0.00 79 1008.7
20260505204206 53 16 1.7 8.7 0.00 0.00 0.00 79 1008.7
20260505203706 53 27 1.7 6.1 0.00 0.00 0.00 79 1008.6
20260505203206 53 27 1.7 7.0 0.00 0.00 0.00 78 1008.5
20260505202706 53 29 1.7 6.1 0.00 0.00 0.00 78 1008.5
20260505202206 54 20 1.7 7.0 0.00 0.00 0.00 78 1008.4
20260505201706 54 25 1.7 6.1 0.00 0.00 0.00 77 1008.4
20260505201206 54 24 1.7 6.1 0.00 0.00 0.00 77 1008.4
20260505200706 54 25 1.7 8.7 0.00 0.00 0.00 77 1008.4
20260505200206 54 23 2.6 6.1 0.00 0.00 0.00 76 1008.3
20260505195706 54 18 2.6 8.7 0.00 0.00 0.00 76 1008.3
20260505195206 54 29 2.6 7.0 0.00 0.00 0.00 76 1008.2
20260505194706 54 30 2.6 5.2 0.00 0.00 0.00 76 1008.1
20260505194206 55 30 2.6 7.0 0.00 0.00 0.00 75 1008.1
20260505193706 55 20 2.6 7.8 0.00 0.00 0.00 75 1008.0
20260505193206 55 33 2.6 8.7 0.00 0.00 0.00 75 1008.0
20260505192706 55 18 2.6 7.8 0.00 0.00 0.00 75 1007.9
20260505192206 55 34 2.6 6.1 0.00 0.00 0.00 75 1007.9
20260505191706 55 31 2.6 7.0 0.00 0.00 0.00 75 1007.9
20260505191206 56 13 2.6 8.7 0.00 0.00 0.00 74 1007.9
20260505190706 56 24 2.6 7.0 0.00 0.00 0.00 74 1007.9
20260505190206 56 21 2.6 7.8 0.00 0.00 0.00 74 1007.9
20260505185706 56 40 2.6 10.4 0.00 0.00 0.00 74 1007.8